Weather History for Akron, CO

Change the Weather History Date:

Monday, July 15, 2013

  Actual Average Record
Temperature  
Mean Temperature 71 °F 74 °F  
Max Temperature 79 °F 89 °F 101 °F (2006)
Min Temperature 62 °F 60 °F 50 °F (1958)
Degree Days  
Heating Degree Days 0    
Month to date heating degree days 0  
Cooling Degree Days 6    
Month to date cooling degree days 156  
Growing Degree Days 20 (Base 50)    
Moisture  
Dew Point 58 °F    
Average Humidity 66    
Maximum Humidity 100    
Minimum Humidity 31    
Precipitation  
Precipitation 0.00 in 0.08 in 0.42 in (1993)
Month to date precipitation 2.70 1.14  
Year to date precipitation 7.79 9.78  
Sea Level Pressure  
Sea Level Pressure 30.14 in    
Wind  
Wind Speed 10 mph (SSE)    
Max Wind Speed 25 mph    
Max Gust Speed 30 mph    
Visibility 7 miles    
Events      
T = Trace of Precipitation, MM = Missing Value Source: NWS Daily Summary

Daily Weather History Graph

Daily Weather History Graph

Search for Another Location

Airport:

Trip Planner

Search our weather history database for the weather conditions in past years. The results will help you decide how hot, cold, wet, or windy it might be!

Date:

Astronomy

Jul. 15, 2013 Rise Set
Actual Time 5:36 AM MDT 8:20 PM MDT
Civil Twilight 5:04 AM MDT 8:52 PM MDT
Nautical Twilight 4:24 AM MDT 9:32 PM MDT
Astronomical Twilight 3:38 AM MDT 10:18 PM MDT
Moon 12:58 PM MDT (7/15) No Moon Set
Length of Visible Light 15h 48m
Length of Day
14h 44m
Waxing Crescent, 46% of the Moon is Illuminated
Jul 15
Waxing Crescent
Jul 15
First Quarter
Jul 22
Full
Jul 29
Last Quarter
Aug 6
New

Hourly Weather History & Observations

Time (MDT) Temp. Dew Point Humidity Pressure Visibility Wind Dir Wind Speed Gust Speed Precip Events Conditions
12:19 AM 64.4 °F 64.4 °F 100% 30.23 in 2.5 mi ESE 4.6 mph - N/A   Overcast
12:40 AM 64.4 °F 64.4 °F 100% 30.23 in 1.5 mi Variable 3.5 mph - N/A   Overcast
12:53 AM 64.0 °F 64.0 °F 100% 30.09 in 1.0 mi SE 4.6 mph - N/A   Mist
12:58 AM 64.4 °F 64.4 °F 100% 30.23 in 1.5 mi ESE 5.8 mph - N/A   Overcast
1:06 AM 64.4 °F 64.4 °F 100% 30.24 in 3.0 mi ESE 4.6 mph - N/A   Overcast
1:51 AM 64.4 °F 64.4 °F 100% 30.23 in 2.5 mi Variable 6.9 mph - N/A   Overcast
1:53 AM 64.9 °F 64.0 °F 97% 30.08 in 2.5 mi SSE 8.1 mph - N/A   Overcast
2:01 AM 64.4 °F 64.4 °F 100% 30.23 in 3.0 mi SE 6.9 mph - N/A   Overcast
2:50 AM 64.4 °F 64.4 °F 100% 30.22 in 5.0 mi SSE 9.2 mph - N/A   Overcast
2:53 AM 64.9 °F 64.0 °F 97% 30.07 in 5.0 mi SSE 9.2 mph - N/A   Overcast
3:42 AM 64.4 °F 64.4 °F 100% 30.22 in 4.0 mi South 9.2 mph - N/A   Overcast
3:53 AM 64.9 °F 64.0 °F 97% 30.07 in 4.0 mi SSE 9.2 mph - N/A   Overcast
4:09 AM 64.4 °F 64.4 °F 100% 30.22 in 4.0 mi South 10.4 mph - N/A   Overcast
4:18 AM 64.4 °F 64.4 °F 100% 30.22 in 4.0 mi SSE 8.1 mph - N/A   Overcast
4:29 AM 64.4 °F 64.4 °F 100% 30.23 in 4.0 mi ESE 6.9 mph - N/A   Overcast
4:53 AM 64.9 °F 64.0 °F 97% 30.09 in 3.0 mi SE 10.4 mph - N/A   Overcast
5:14 AM 64.4 °F 62.6 °F 94% 30.22 in 4.0 mi SSE 9.2 mph - N/A   Overcast
5:53 AM 63.0 °F 62.1 °F 97% 30.09 in 6.0 mi SE 12.7 mph - N/A   Overcast
6:01 AM 62.6 °F 62.6 °F 100% 30.23 in 6.0 mi SSE 9.2 mph - N/A   Overcast
6:53 AM 63.0 °F 62.1 °F 97% 30.10 in 7.0 mi SSE 12.7 mph - N/A   Overcast
7:25 AM 62.6 °F 60.8 °F 94% 30.24 in 10.0 mi SE 17.3 mph 25.3 mph N/A   Overcast
7:36 AM 62.6 °F 60.8 °F 94% 30.25 in 10.0 mi SSE 15.0 mph 24.2 mph N/A   Overcast
7:53 AM 64.0 °F 61.0 °F 90% 30.11 in 10.0 mi SSE 19.6 mph 24.2 mph N/A   Overcast
8:19 AM 66.2 °F 60.8 °F 83% 30.25 in 10.0 mi SSE 19.6 mph 24.2 mph N/A   Mostly Cloudy
8:53 AM 66.9 °F 59.0 °F 76% 30.11 in 10.0 mi South 18.4 mph 25.3 mph N/A   Mostly Cloudy
9:53 AM 68.0 °F 60.1 °F 76% 30.11 in 10.0 mi South 18.4 mph 26.5 mph N/A   Scattered Clouds
10:53 AM 71.1 °F 55.0 °F 57% 30.11 in 10.0 mi South 18.4 mph 26.5 mph N/A   Mostly Cloudy
11:53 AM 73.0 °F 53.1 °F 49% 30.10 in 10.0 mi South 21.9 mph - N/A   Partly Cloudy
12:53 PM 75.9 °F 52.0 °F 43% 30.08 in 10.0 mi SSE 19.6 mph 26.5 mph N/A   Clear
1:53 PM 78.1 °F 51.1 °F 39% 30.05 in 10.0 mi South 20.7 mph 25.3 mph N/A   Clear
2:53 PM 77.0 °F 51.1 °F 40% 30.05 in 10.0 mi SSE 18.4 mph 27.6 mph N/A   Partly Cloudy
3:53 PM 78.1 °F 52.0 °F 40% 30.03 in 10.0 mi South 21.9 mph 25.3 mph N/A   Clear
4:53 PM 78.1 °F 48.9 °F 36% 30.02 in 10.0 mi South 23.0 mph - N/A   Clear
5:53 PM 75.9 °F 45.0 °F 33% 30.02 in 10.0 mi South 18.4 mph 24.2 mph N/A   Clear
6:53 PM 75.0 °F 42.1 °F 31% 30.03 in 10.0 mi SSE 16.1 mph 26.5 mph N/A   Clear
7:53 PM 72.0 °F 43.0 °F 35% 30.05 in 10.0 mi SSE 12.7 mph 23.0 mph N/A   Clear
8:53 PM 68.0 °F 48.0 °F 49% 30.06 in 10.0 mi SSE 9.2 mph - N/A   Clear
9:53 PM 66.0 °F 50.0 °F 56% 30.10 in 10.0 mi South 9.2 mph - N/A   Clear
10:53 PM 64.0 °F 50.0 °F 60% 30.10 in 10.0 mi South 11.5 mph - N/A   Clear
11:53 PM 62.1 °F 50.0 °F 65% 30.09 in 10.0 mi South 10.4 mph - N/A   Clear